Location: Macksville High School
(37.9611°N, 99.9654°W)
Time: 01:53:28
(UTC+00:00)

Cosmos 1464 Rocket - Pass Details

Date: 17 January 2021
Orbit: 953 x 1000 km, 82.9° (Epoch: 07 March)

Event Time Altitude Azimuth Distance (km) Brightness Sun altitude
Rises 12:00:44 0° 178° (S) 3,620 7.1 -22.0°
Reaches altitude 10° 12:03:14 10° 176° (S) 2,675 6.4 -21.5°
Maximum altitude 12:09:18 72° 94° (E) 1,003 4.2 -20.3°
Drops below altitude 10° 12:15:24 10° 11° (N) 2,690 6.3 -19.1°
Sets 12:17:55 0° 10° (N) 3,642 7.0 -18.7°
